Location: Hilton Head Island
(32.2163°N, 80.7526°W)
Time: 15:33:23
(UTC-05:00)

Explorer 11/Cluster Stage 4 - Pass Details

Date: 16 February 2026
Orbit: 463 x 1176 km, 28.8° (Epoch: 6 March)

Event Time Altitude Azimuth Distance (km) Brightness Sun altitude
Rises 12:08:23 0° 211° (SSW) 2,904 10.0 45.1°
Reaches altitude 10° 12:12:21 10° 178° (S) 1,837 9.5 45.2°
Maximum altitude 12:13:47 12° 158° (SSE) 1,692 9.3 45.3°
Drops below altitude 10° 12:15:09 10° 138° (SE) 1,743 9.1 45.3°
Sets 12:18:37 0° 103° (ESE) 2,535 9.4 45.4°
